This is the latest recevied weather packets stored in our database for station/object WK7G. If no packets are shown the sender has not sent any weather packets the latest 10 day(s).
| Time | Temp. | Humidity | Pressure | Rain* | Wind** | Luminosity | Snow |
|---|---|---|---|---|---|---|---|
| 1777532708 | -1.67° C | 89% | 1015.1 hPa | 0 mm | - | 0 W/m² | - |
| 1777532404 | -1.67° C | 89% | 1015.4 hPa | 0 mm | - | 0 W/m² | - |
| 1777532101 | -2.22° C | 89% | 1015.3 hPa | 0 mm | - | 0 W/m² | - |
| 1777531796 | -1.67° C | 89% | 1015.3 hPa | 0 mm | - | 0 W/m² | - |
| 1777531493 | -1.67° C | 89% | 1015.3 hPa | 0 mm | - | 0 W/m² | - |
| 1777531191 | -1.11° C | 89% | 1015.2 hPa | 0 mm | - | 0 W/m² | - |
| 1777530888 | -1.67° C | 89% | 1015.1 hPa | 0 mm | - | 0 W/m² | - |
| 1777530586 | -1.67° C | 89% | 1015.2 hPa | 0 mm | - | 0 W/m² | - |
| 1777530282 | -2.22° C | 89% | 1015.1 hPa | 0 mm | - | 0 W/m² | - |
| 1777529978 | -2.22° C | 88% | 1015.1 hPa | 0 mm | - | 0 W/m² | - |
| 1777529676 | -1.67° C | 89% | 1015.1 hPa | 0 mm | - | 0 W/m² | - |
| 1777529372 | -1.67° C | 88% | 1014.8 hPa | 0 mm | - | 0 W/m² | - |
| 1777529069 | -1.67° C | 88% | 1015.1 hPa | 0 mm | - | 0 W/m² | - |
| 1777528764 | -1.11° C | 88% | 1014.9 hPa | 0 mm | - | 0 W/m² | - |
| 1777528462 | -1.11° C | 88% | 1015.1 hPa | 0 mm | - | 0 W/m² | - |
| 1777528161 | -1.11° C | 88% | 1015.2 hPa | 0 mm | - | 0 W/m² | - |
| 1777527552 | -1.11° C | 88% | 1014.9 hPa | 0 mm | - | 0 W/m² | - |
| 1777527248 | -1.11° C | 88% | 1014.9 hPa | 0 mm | - | 0 W/m² | - |
| 1777526944 | -1.11° C | 87% | 1014.9 hPa | 0 mm | - | 0 W/m² | - |
| 1777526640 | -1.11° C | 87% | 1014.8 hPa | 0 mm | - | 0 W/m² | - |
| 1777526340 | -1.11° C | 87% | 1015.1 hPa | 0 mm | - | 0 W/m² | - |
| 1777526036 | -0.56° C | 87% | 1015.1 hPa | 0 mm | - | 0 W/m² | - |
| 1777525733 | -0.56° C | 87% | 1014.9 hPa | 0 mm | - | 0 W/m² | - |
| 1777525430 | -0.56° C | 87% | 1015.3 hPa | 0 mm | - | 0 W/m² | - |
| 1777525126 | 0° C | 88% | 1015.3 hPa | 0 mm | - | 0 W/m² | - |
* Rain latest hour (hover to see other rain measurements)
** Current wind speed in m/s (hover to see current wind gust speed)